TA2NC-13 Weather Reports


time (UTC)temp
C
wind
direction
speed
KPH
gust
KPH
rain 1hr
cm
rain 24hr
cm
rain mn
cm
humidity
%
barometer
mb
20260509123000 18 115 0.0 0.0 0.00 0.00 0.03 54 1020.0
20260509122000 17 115 0.0 0.0 0.00 0.00 0.03 53 1020.0
20260509121000 17 173 0.0 0.0 0.00 0.00 0.03 53 1020.0
20260509120000 17 141 0.0 0.0 0.00 0.00 0.03 53 1020.0
20260509115000 17 234 0.0 3.2 0.00 0.00 0.03 52 1020.0
20260509114623 17 227 0.0 4.8 0.00 0.00 0.03 51 1020.0
20260509114000 17 247 4.8 8.0 0.00 0.00 0.03 51 1020.0
20260509113000 17 216 3.2 8.0 0.00 0.00 0.03 50 1020.0
20260509112000 17 205 1.6 11.3 0.00 0.00 0.03 50 1020.0
20260509111000 18 193 4.8 11.3 0.00 0.00 0.03 49 1020.0
20260509110000 18 169 1.6 9.7 0.00 0.00 0.03 48 1020.0
20260509105000 19 186 4.8 12.9 0.00 0.00 0.03 51 1020.0
20260509104000 19 163 3.2 11.3 0.00 0.00 0.03 47 1020.0
20260509103000 19 99 6.4 9.7 0.00 0.00 0.03 46 1020.0
20260509102000 18 183 1.6 4.8 0.00 0.00 0.03 47 1020.0
20260509101000 18 156 1.6 6.4 0.00 0.00 0.03 46 1020.0
20260509100000 19 126 11.3 14.5 0.00 0.00 0.03 45 1020.0
20260509095000 19 174 0.0 6.4 0.00 0.00 0.03 44 1020.0
20260509094000 20 9 4.8 11.3 0.00 0.00 0.03 42 1020.0
20260509093000 20 14 4.8 8.0 0.00 0.00 0.03 44 1020.0
20260509092000 20 79 4.8 11.3 0.00 0.00 0.03 42 1020.0
20260509091000 20 30 4.8 11.3 0.00 0.00 0.03 45 1020.0
20260509090000 19 353 6.4 11.3 0.00 0.00 0.03 46 1020.0
20260509085000 18 109 3.2 4.8 0.03 0.00 0.03 50 1020.0
20260509084000 17 192 1.6 4.8 0.00 0.00 0.00 50 1020.0
20260509083000 16 120 0.0 4.8 0.00 0.00 0.00 50 1020.0
20260509082000 16 336 3.2 4.8 0.00 0.00 0.00 50 1020.0
20260509081000 16 182 0.0 6.4 0.00 0.00 0.00 49 1020.0
20260509080000 16 65 4.8 9.7 0.00 0.00 0.00 48 1020.0
20260509075000 16 84 4.8 12.9 0.00 0.00 0.00 47 1020.0
20260509074000 16 76 8.0 11.3 0.00 0.00 0.00 51 1020.0
20260509073000 16 154 0.0 8.0 0.00 0.00 0.00 52 1020.0
20260509072000 16 87 1.6 4.8 0.00 0.00 0.00 56 1020.0
20260509071000 15 112 4.8 8.0 0.00 0.00 0.00 60 1020.0
20260509070000 14 32 0.0 0.0 0.00 0.00 0.00 63 1020.0
20260509065000 14 14 3.2 6.4 0.00 0.00 0.00 66 1020.0
20260509064000 14 0 0.0 3.2 0.00 0.00 0.00 65 1020.0
20260509063000 14 316 3.2 6.4 0.00 0.00 0.00 65 1020.0
20260509062000 14 262 3.2 4.8 0.00 0.00 0.00 65 1020.0
20260509061001 14 286 4.8 6.4 0.00 0.00 0.00 65 1020.0
20260509060000 14 178 0.0 1.6 0.00 0.00 0.00 66 1020.0
20260509055000 13 188 0.0 1.6 0.00 0.00 0.00 66 1020.0
20260509054000 13 189 0.0 4.8 0.00 0.00 0.00 65 1020.0
20260509053000 13 255 0.0 0.0 0.00 0.00 0.00 69 1020.0
20260509052000 13 129 0.0 0.0 0.00 0.00 0.00 68 1020.0
20260509051000 13 120 0.0 0.0 0.00 0.00 0.00 68 1020.0
20260509050000 13 149 1.6 4.8 0.00 0.00 0.00 67 1020.0
20260509045000 13 183 0.0 1.6 0.00 0.00 0.00 67 1020.0
20260509044000 13 162 1.6 4.8 0.00 0.00 0.00 68 1020.0
20260509043000 12 150 0.0 1.6 0.00 0.00 0.00 68 1020.0
20260509042000 12 202 0.0 4.8 0.00 0.00 0.00 67 1020.0
20260509041000 12 15 4.8 8.0 0.00 0.00 0.00 67 1020.0
20260509040000 12 236 0.0 0.0 0.00 0.00 0.00 68 1020.0
20260509035000 12 132 0.0 0.0 0.00 0.00 0.00 68 1020.0
20260509034000 12 207 0.0 0.0 0.00 0.00 0.00 67 1020.0
20260509033000 12 97 0.0 0.0 0.00 0.00 0.00 68 1020.0
20260509032000 12 183 0.0 0.0 0.00 0.00 0.00 67 1020.0
20260509031000 12 150 0.0 4.8 0.00 0.00 0.00 68 1020.0
20260509030000 12 355 0.0 0.0 0.00 0.00 0.00 67 1020.0
20260509025000 11 134 0.0 0.0 0.00 0.00 0.00 67 1020.0
20260509024000 11 128 0.0 3.2 0.00 0.00 0.00 68 1020.0
20260509023000 11 98 0.0 4.8 0.00 0.00 0.00 69 1020.0
20260509022000 11 5 3.2 8.0 0.00 0.00 0.00 67 1020.0
20260509021000 11 111 0.0 0.0 0.00 0.00 0.00 70 1020.0
20260509020000 11 318 1.6 4.8 0.00 0.00 0.00 69 1020.0
20260509015000 11 139 0.0 4.8 0.00 0.00 0.00 68 1020.0
20260509014000 11 358 3.2 3.2 0.00 0.00 0.00 66 1020.0
20260509013000 11 158 0.0 0.0 0.00 0.00 0.00 69 1020.0
20260509012000 11 184 0.0 0.0 0.00 0.00 0.00 68 1020.0
20260509011000 11 165 0.0 0.0 0.00 0.00 0.00 68 1020.0
20260509010000 11 139 0.0 0.0 0.00 0.00 0.00 67 1020.0
20260509005000 11 140 0.0 0.0 0.00 0.00 0.00 67 1020.0
20260509004000 11 159 0.0 0.0 0.00 0.00 0.00 68 1020.0
20260509003000 11 146 0.0 3.2 0.00 0.00 0.00 67 1020.0
20260509002000 11 172 0.0 1.6 0.00 0.00 0.00 67 1020.0
20260509001000 11 195 0.0 0.0 0.00 0.00 0.00 67 1020.0
20260509000000 11 331 0.0 1.6 0.00 0.00 0.00 67 1020.0
20260508235000 11 268 0.0 3.2 0.00 0.00 0.00 66 1020.0
20260508234000 11 316 0.0 3.2 0.00 0.00 0.00 66 1020.0
20260508233000 11 347 6.4 9.7 0.00 0.00 0.00 66 1020.0
20260508232000 11 18 3.2 4.8 0.00 0.00 0.00 68 1020.0
20260508231000 10 227 0.0 4.8 0.00 0.00 0.00 68 1020.0
20260508230000 10 54 0.0 1.6 0.00 0.00 0.00 67 1020.0
20260508225000 11 313 0.0 8.0 0.00 0.00 0.00 66 1021.0
20260508224000 10 17 4.8 6.4 0.00 0.00 0.00 67 1021.0
20260508223000 10 145 1.6 4.8 0.00 0.00 0.00 68 1021.0
20260508222000 10 307 1.6 3.2 0.00 0.00 0.00 68 1021.0
20260508221000 11 321 0.0 1.6 0.00 0.00 0.00 67 1021.0
20260508220000 11 232 0.0 0.0 0.00 0.00 0.00 66 1021.0
20260508215000 11 247 0.0 3.2 0.00 0.00 0.00 65 1021.0
20260508214000 11 332 0.0 1.6 0.00 0.00 0.00 65 1021.0
20260508213000 12 14 0.0 3.2 0.00 0.00 0.00 64 1021.0
20260508212000 12 138 3.2 4.8 0.00 0.00 0.00 63 1021.0
20260508211000 12 338 3.2 4.8 0.00 0.00 0.00 63 1021.0
20260508210000 12 143 0.0 0.0 0.00 0.00 0.00 63 1021.0
20260508205000 12 4 3.2 6.4 0.00 0.00 0.00 62 1021.0
20260508204000 12 333 0.0 1.6 0.00 0.00 0.00 62 1021.0
20260508203000 12 79 3.2 4.8 0.00 0.00 0.00 62 1021.0
20260508202000 12 10 8.0 11.3 0.00 0.00 0.00 62 1021.0
20260508201000 12 9 3.2 3.2 0.00 0.00 0.00 64 1021.0
20260508200000 12 183 0.0 0.0 0.00 0.00 0.00 63 1021.0
20260508195000 12 180 0.0 0.0 0.00 0.00 0.00 63 1021.0
20260508194000 12 182 0.0 1.6 0.00 0.00 0.00 63 1021.0
20260508193000 12 227 0.0 0.0 0.00 0.00 0.00 63 1021.0
20260508192000 12 12 0.0 6.4 0.00 0.00 0.00 61 1021.0
20260508191000 12 321 0.0 3.2 0.00 0.00 0.00 62 1020.0
20260508190000 12 42 1.6 1.6 0.00 0.00 0.00 61 1020.0
20260508185000 12 333 3.2 3.2 0.00 0.00 0.00 60 1020.0
20260508184001 12 4 0.0 0.0 0.00 0.00 0.00 61 1020.0
20260508183000 13 345 0.0 3.2 0.00 0.00 0.00 59 1020.0
20260508182000 13 331 0.0 0.0 0.00 0.00 0.00 61 1020.0
20260508181000 13 342 0.0 0.0 0.00 0.00 0.00 59 1021.0
20260508180000 13 342 0.0 0.0 0.00 0.00 0.00 58 1021.0
20260508175000 13 339 0.0 1.6 0.00 0.00 0.00 57 1021.0
20260508174000 13 355 1.6 1.6 0.00 0.00 0.00 57 1021.0
20260508173000 14 0 0.0 0.0 0.00 0.00 0.00 57 1021.0
20260508172000 15 0 0.0 0.0 0.00 0.00 0.00 55 1021.0
20260508171000 15 0 0.0 0.0 0.00 0.00 0.00 53 1021.0
20260508170000 15 0 0.0 0.0 0.00 0.00 0.00 50 1021.0
20260508165000 16 0 0.0 0.0 0.00 0.00 0.00 48 1021.0
20260508164000 17 0 0.0 0.0 0.00 0.00 0.00 46 1021.0
20260508163000 17 0 0.0 0.0 0.00 0.00 0.00 43 1021.0
20260508162000 17 0 0.0 0.0 0.00 0.00 0.00 42 1021.0
20260508161000 18 0 0.0 0.0 0.00 0.00 0.00 42 1021.0
20260508160000 18 0 0.0 0.0 0.00 0.00 0.00 41 1021.0
20260508155000 18 0 0.0 0.0 0.00 0.00 0.00 39 1021.0
20260508154000 19 0 0.0 0.0 0.00 0.00 0.00 39 1021.0
20260508153000 20 0 0.0 0.0 0.00 0.00 0.00 37 1021.0
20260508152000 20 0 0.0 0.0 0.00 0.00 0.00 38 1021.0
20260508151000 20 0 0.0 0.0 0.00 0.00 0.00 38 1021.0
20260508150000 20 0 0.0 0.0 0.00 0.00 0.00 38 1021.0
20260508145000 20 0 0.0 0.0 0.00 0.00 0.00 38 1021.0
20260508144000 20 0 0.0 0.0 0.00 0.00 0.00 39 1021.0
20260508143000 20 0 0.0 0.0 0.00 0.00 0.00 39 1021.0
20260508142000 20 0 0.0 0.0 0.00 0.00 0.00 39 1021.0
20260508141000 21 0 0.0 0.0 0.00 0.00 0.00 39 1021.0
20260508140000 21 0 0.0 0.0 0.00 0.00 0.00 39 1021.0
20260508135000 21 0 0.0 0.0 0.00 0.00 0.00 38 1021.0
20260508134000 21 0 0.0 0.0 0.00 0.00 0.00 37 1021.0
20260508133000 22 0 0.0 0.0 0.00 0.00 0.00 37 1021.0
20260508132000 22 0 0.0 0.0 0.00 0.00 0.00 37 1021.0
20260508131000 22 0 0.0 0.0 0.00 0.00 0.00 34 1021.0
20260508130000 22 0 0.0 0.0 0.00 0.00 0.00 33 1021.0
20260508125000 21 0 0.0 0.0 0.00 0.00 0.00 34 1021.0
20260508124000 21 0 0.0 0.0 0.00 0.00 0.00 30 1021.0